Flag for U.S.A. Weather past 2 weeks in Corpus Christi, Texas, U.S.A.

Now
84 °F

Broken clouds.


Feels Like: 93 °F
Forecast: 78 / 85 °F
Wind: 29 mph from South

Location: Corpus Christi International Airport

Current Time: May 25, 2015 at 5:53:39 PM

Latest Report: May 25, 2015 at 4:51 PM


Visibility: 10 mi

Pressure: 29.77 "Hg

Humidity: 77%

Dew point: 76 °F

Location of Corpus ChristiLocation

Historic Weather in Corpus Christi — Graph

°F

Corpus Christi temperature yesterday

Maximum temperature yesterday: 85 °F (at 2:51 PM)
Minimum temperature yesterday: 71 °F (at 1:51 AM)
Average temperature yesterday: 77 °F

Past Weeks' High & Low Weather Summary

 TemperatureHumidityPressure
High87 °F (May 18, 2:51 PM)97% (May 12, 2:51 AM)30.09 "Hg (May 12, 2:51 AM)
Low69 °F (May 12, 3:02 AM)61% (May 24, 2:51 PM)29.77 "Hg (May 10, 4:51 PM)
Average79 °F83%29.94 "Hg
* Reported May 10 3:51 PM — May 25 3:51 PM, Corpus Christi, Weather by CustomWeather, © 2015

Note: Actual official high and low records may vary slightly from our data, if they occured in-between our weather recording intervals... More about our weather records

Advertising

Corpus Christi weather history for previous 24 hours

 ConditionsComfort  
Time TempWeatherWind HumidityBarometerVisibility
3:51 PM
Mon, May 25
85 °FBroken clouds.29 mph75%29.80 "Hg10 mi
3:03 PM85 °FBroken clouds.31 mph75%29.82 "Hg10 mi
2:51 PM85 °FBroken clouds.30 mph75%29.82 "Hg10 mi
1:51 PM84 °FCloudy.23 mph77%29.85 "Hg10 mi
12:51 PM84 °FBroken clouds.25 mph74%29.86 "Hg10 mi
11:51 AM82 °FLight rain. Mostly cloudy.20 mph82%29.88 "Hg10 mi
10:51 AM81 °FLight rain. Broken clouds.22 mph85%29.86 "Hg10 mi
9:51 AM82 °FCloudy.24 mph79%29.88 "Hg10 mi
9:01 AM82 °FBroken clouds.22 mph77%29.87 "Hg10 mi
7:51 AM79 °FPassing clouds.15 mph84%29.86 "Hg10 mi
6:51 AM77 °FPassing clouds.16 mph88%29.86 "Hg10 mi
5:51 AM77 °FPassing clouds.12 mph88%29.85 "Hg10 mi
4:51 AM76 °FPassing clouds.9 mph91%29.85 "Hg10 mi
3:51 AM76 °FPassing clouds.10 mph91%29.85 "Hg10 mi
2:51 AM77 °FPassing clouds.10 mph88%29.86 "Hg10 mi
1:51 AM76 °FPassing clouds.10 mph91%29.87 "Hg10 mi
12:51 AM76 °FPassing clouds.10 mph91%29.88 "Hg10 mi
11:51 PM
Sun, May 24
77 °FClear.12 mph88%29.90 "Hg10 mi
10:51 PM77 °FPassing clouds.14 mph88%29.89 "Hg10 mi
9:51 PM78 °FPassing clouds.15 mph82%29.87 "Hg10 mi
8:51 PM78 °FPassing clouds.15 mph76%29.85 "Hg10 mi
7:51 PM80 °FPassing clouds.18 mph71%29.83 "Hg10 mi
6:51 PM82 °FPassing clouds.23 mph70%29.82 "Hg10 mi
5:51 PM83 °FPassing clouds.21 mph74%29.81 "Hg10 mi
Weather by CustomWeather, © 2015

See weather overviewHow to use our weather pages